Location: Góry Miechowskie
(50.3599°N, 20.1803°E)
Time: 02:03:52
(UTC+00:00)

Vanguard 2 - Pass Details

Date: 14 September 2024
Orbit: 552 x 2910 km, 32.9° (Epoch: 09 October)

Event Time Altitude Azimuth Distance (km) Brightness Sun altitude
Rises 04:34:23 0° 239° (WSW) 3,614 10.4 2.4°
Reaches altitude 10° 04:37:08 10° 225° (SW) 2,947 10.1 2.9°
Maximum altitude 04:42:52 24° 174° (S) 2,607 10.4 3.8°
Drops below altitude 10° 04:51:00 10° 127° (SE) 4,335 12.4 5.1°
Sets 04:56:10 0° 116° (ESE) 5,772 13.4 5.9°
